TimeCDT,TemperatureF,Dew PointF,Humidity,Sea Level PressureIn,VisibilityMPH,Wind Direction,Wind SpeedMPH,Gust SpeedMPH,PrecipitationIn,Events,Conditions,WindDirDegrees,DateUTC
12:15 AM,69.8,66.2,88,29.81,10.0,Calm,Calm,-,N/A,,Clear,0,2013-09-01 05:15:00
12:35 AM,68.0,66.2,94,29.80,10.0,Calm,Calm,-,N/A,,Clear,0,2013-09-01 05:35:00
12:55 AM,68.0,66.2,94,29.80,10.0,SSW,3.5,-,N/A,,Clear,200,2013-09-01 05:55:00
1:15 AM,69.8,66.2,88,29.80,9.0,Calm,Calm,-,N/A,,Clear,0,2013-09-01 06:15:00
1:35 AM,69.8,66.2,88,29.82,10.0,NNE,5.8,-,N/A,,Clear,20,2013-09-01 06:35:00
1:55 AM,69.8,66.2,88,29.85,10.0,North,16.1,-,N/A,,Scattered Clouds,360,2013-09-01 06:55:00
2:15 AM,71.6,62.6,73,29.86,10.0,North,19.6,-,N/A,,Mostly Cloudy,10,2013-09-01 07:15:00
2:35 AM,69.8,62.6,78,29.84,10.0,NNE,10.4,-,N/A,,Light Drizzle,20,2013-09-01 07:35:00
2:55 AM,68.0,66.2,94,29.92,4.0,NNW,31.1,39.1,0.08,Rain,Rain,330,2013-09-01 07:55:00
3:15 AM,66.2,66.2,100,29.89,1.5,NNE,21.9,43.7,N/A,Rain,Heavy Rain,20,2013-09-01 08:15:00
3:35 AM,69.8,64.4,83,29.81,10.0,East,16.1,26.5,N/A,,Light Drizzle,100,2013-09-01 08:35:00
3:55 AM,69.8,66.2,88,29.80,9.0,SE,12.7,19.6,0.44,Rain,Light Rain,140,2013-09-01 08:55:00
4:15 AM,69.8,66.2,88,29.81,10.0,SSE,13.8,19.6,N/A,,Light Drizzle,160,2013-09-01 09:15:00
4:35 AM,68.0,66.2,94,29.81,10.0,SSW,8.1,15.0,N/A,,Scattered Clouds,210,2013-09-01 09:35:00
4:55 AM,68.0,66.2,94,29.81,-9999.0,SSW,11.5,25.3,N/A,,Unknown,210,2013-09-01 09:55:00
5:15 AM,68.0,66.2,94,29.81,10.0,SSW,9.2,15.0,N/A,,Clear,210,2013-09-01 10:15:00
5:35 AM,68.0,66.2,94,29.82,10.0,West,8.1,-,N/A,,Clear,260,2013-09-01 10:35:00
5:55 AM,68.0,66.2,94,29.83,10.0,WNW,10.4,-,N/A,,Clear,290,2013-09-01 10:55:00
6:15 AM,66.2,66.2,100,29.84,10.0,NW,10.4,-,N/A,,Clear,310,2013-09-01 11:15:00
6:35 AM,66.2,66.2,100,29.87,10.0,NW,6.9,-,N/A,,Clear,310,2013-09-01 11:35:00
6:55 AM,66.2,66.2,100,29.88,10.0,WNW,5.8,-,N/A,,Clear,300,2013-09-01 11:55:00
7:15 AM,66.2,66.2,100,29.89,10.0,WNW,8.1,-,N/A,,Clear,290,2013-09-01 12:15:00
7:35 AM,66.2,66.2,100,29.90,10.0,West,5.8,-,N/A,,Clear,260,2013-09-01 12:35:00
7:55 AM,68.0,66.2,94,29.91,10.0,WNW,6.9,-,N/A,,Clear,300,2013-09-01 12:55:00
8:15 AM,68.0,66.2,94,29.91,10.0,WNW,5.8,-,N/A,,Clear,290,2013-09-01 13:15:00
8:35 AM,69.8,64.4,83,29.92,10.0,NW,5.8,-,N/A,,Clear,320,2013-09-01 13:35:00
8:55 AM,69.8,64.4,83,29.92,10.0,NNW,11.5,-,N/A,,Clear,340,2013-09-01 13:55:00
9:15 AM,71.6,62.6,73,29.92,10.0,North,9.2,-,N/A,,Clear,350,2013-09-01 14:15:00
9:35 AM,71.6,62.6,73,29.92,10.0,North,10.4,-,N/A,,Clear,350,2013-09-01 14:35:00
9:55 AM,73.4,60.8,65,29.93,10.0,North,12.7,18.4,N/A,,Clear,360,2013-09-01 14:55:00
10:15 AM,73.4,60.8,65,29.93,10.0,North,12.7,-,N/A,,Clear,360,2013-09-01 15:15:00
10:35 AM,75.2,60.8,61,29.92,10.0,NNW,13.8,-,N/A,,Clear,340,2013-09-01 15:35:00
10:55 AM,75.2,60.8,61,29.92,10.0,NNW,16.1,-,N/A,,Clear,330,2013-09-01 15:55:00
11:15 AM,77.0,59.0,54,29.92,10.0,NNW,20.7,-,N/A,,Clear,330,2013-09-01 16:15:00
11:35 AM,77.0,57.2,50,29.92,10.0,North,15.0,20.7,N/A,,Clear,350,2013-09-01 16:35:00
11:55 AM,78.8,59.0,51,29.92,10.0,North,16.1,-,N/A,,Clear,350,2013-09-01 16:55:00
12:15 PM,78.8,57.2,47,29.92,10.0,North,16.1,-,N/A,,Clear,350,2013-09-01 17:15:00
12:35 PM,78.8,55.4,44,29.92,10.0,NNW,16.1,25.3,N/A,,Clear,340,2013-09-01 17:35:00
12:55 PM,78.8,57.2,47,29.92,10.0,North,15.0,23.0,N/A,,Clear,350,2013-09-01 17:55:00
1:15 PM,78.8,57.2,47,29.92,10.0,North,17.3,26.5,N/A,,Clear,350,2013-09-01 18:15:00
1:35 PM,78.8,57.2,47,29.92,10.0,NW,18.4,28.8,N/A,,Clear,320,2013-09-01 18:35:00
1:55 PM,80.6,59.0,48,29.92,10.0,NNW,18.4,26.5,N/A,,Partly Cloudy,340,2013-09-01 18:55:00
2:15 PM,80.6,59.0,48,29.91,10.0,NNW,20.7,28.8,N/A,,Scattered Clouds,330,2013-09-01 19:15:00
2:35 PM,78.8,59.0,51,29.92,-9999.0,North,17.3,26.5,N/A,,Scattered Clouds,350,2013-09-01 19:35:00
2:55 PM,80.6,59.0,48,29.92,10.0,NNW,19.6,25.3,N/A,,Scattered Clouds,330,2013-09-01 19:55:00
3:15 PM,78.8,57.2,47,29.91,10.0,NNW,21.9,-,N/A,,Scattered Clouds,340,2013-09-01 20:15:00
3:35 PM,80.6,57.2,45,29.91,10.0,North,19.6,27.6,N/A,,Scattered Clouds,350,2013-09-01 20:35:00
3:55 PM,78.8,57.2,47,29.92,10.0,NNW,17.3,24.2,N/A,,Partly Cloudy,330,2013-09-01 20:55:00
4:15 PM,80.6,57.2,45,29.92,10.0,NW,15.0,23.0,N/A,,Mostly Cloudy,320,2013-09-01 21:15:00
4:35 PM,78.8,59.0,51,29.92,10.0,NNW,16.1,-,N/A,,Mostly Cloudy,330,2013-09-01 21:35:00
4:55 PM,78.8,57.2,47,29.93,10.0,NNW,16.1,21.9,N/A,,Partly Cloudy,330,2013-09-01 21:55:00
5:15 PM,80.6,59.0,48,29.92,10.0,North,11.5,20.7,N/A,,Mostly Cloudy,350,2013-09-01 22:15:00
5:35 PM,80.6,59.0,48,29.93,10.0,NNW,15.0,-,N/A,,Overcast,330,2013-09-01 22:35:00
5:55 PM,78.8,59.0,51,29.93,10.0,NNW,11.5,-,N/A,,Mostly Cloudy,330,2013-09-01 22:55:00
6:15 PM,77.0,59.0,54,29.93,10.0,North,11.5,18.4,N/A,,Mostly Cloudy,360,2013-09-01 23:15:00
6:35 PM,77.0,59.0,54,29.93,10.0,North,11.5,-,N/A,,Scattered Clouds,360,2013-09-01 23:35:00
6:55 PM,77.0,59.0,54,29.93,10.0,North,11.5,-,N/A,,Partly Cloudy,350,2013-09-01 23:55:00
7:15 PM,75.2,60.8,61,29.93,10.0,North,9.2,15.0,N/A,,Partly Cloudy,360,2013-09-02 00:15:00
7:35 PM,73.4,60.8,65,29.94,10.0,North,8.1,-,N/A,,Clear,360,2013-09-02 00:35:00
7:55 PM,69.8,62.6,78,29.94,10.0,North,8.1,-,N/A,,Clear,360,2013-09-02 00:55:00
8:15 PM,68.0,62.6,83,29.95,10.0,North,5.8,-,N/A,,Clear,10,2013-09-02 01:15:00
8:35 PM,68.0,62.6,83,29.95,10.0,North,5.8,-,N/A,,Clear,10,2013-09-02 01:35:00
8:55 PM,66.2,62.6,88,29.96,10.0,North,6.9,-,N/A,,Clear,360,2013-09-02 01:55:00
9:15 PM,66.2,60.8,83,29.97,10.0,North,5.8,-,N/A,,Clear,10,2013-09-02 02:15:00
9:35 PM,66.2,60.8,83,29.98,10.0,North,3.5,-,N/A,,Clear,360,2013-09-02 02:35:00
9:55 PM,64.4,60.8,88,29.98,10.0,North,4.6,-,N/A,,Clear,360,2013-09-02 02:55:00
10:15 PM,62.6,60.8,94,29.99,10.0,Calm,Calm,-,N/A,,Clear,0,2013-09-02 03:15:00
10:35 PM,62.6,60.8,94,30.00,10.0,NNW,3.5,-,N/A,,Clear,330,2013-09-02 03:35:00
10:55 PM,62.6,60.8,94,30.01,10.0,North,6.9,-,N/A,,Clear,360,2013-09-02 03:55:00
11:15 PM,62.6,60.8,94,30.01,10.0,Calm,Calm,-,N/A,,Clear,0,2013-09-02 04:15:00
11:35 PM,60.8,60.8,100,30.01,10.0,Calm,Calm,-,N/A,,Clear,0,2013-09-02 04:35:00
11:55 PM,60.8,59.0,94,30.02,10.0,NW,4.6,-,N/A,,Clear,320,2013-09-02 04:55:00